Montoursville, PA

2:40 AM EST on December 11, 2016 (GMT -0500)
Williamsport Rgnl

Weather History for KIPT - November, 2013

Change the Weather History Date:

Sunday, November 17, 2013

  Actual Average Record
Temperature  
Mean Temperature 55 °F 41 °F  
Max Temperature 60 °F 49 °F 72 °F (1928)
Min Temperature 49 °F 33 °F 12 °F (1933)
Degree Days  
Heating Degree Days 10 24  
Month to date heating degree days 375 358  
Since 1 July heating degree days 821 901  
Cooling Degree Days 0 0  
Month to date cooling degree days 0 0  
Year to date cooling degree days 863 702  
Growing Degree Days 4 (Base 50)    
Moisture  
Dew Point 50 °F    
Average Humidity 86    
Maximum Humidity 93    
Minimum Humidity 78    
Precipitation  
Precipitation 0.20 in 0.13 in 1.92 in (1920)
Month to date precipitation 0.90 1.99  
Year to date precipitation 27.11 36.60  
Snow  
Snow 0.00 in 0.00 in 10.20 in (1980)
Month to date snowfall T 0.6  
Since 1 July snowfall T 0.7  
Since 1 September snowfall T 0.7  
Snow Depth 0.00 in    
Sea Level Pressure  
Sea Level Pressure 29.99 in    
Wind  
Wind Speed 12 mph (ESE)    
Max Wind Speed 26 mph    
Max Gust Speed 40 mph    
Visibility 6 miles    
Events Rain    
T = Trace of Precipitation, MM = Missing Value Source: NWS Daily Summary

Daily Weather History Graph

Daily Weather History Graph

Search for Another Location

Airport or City:

Trip Planner

Search our weather history database for the weather conditions in past years. The results will help you decide how hot, cold, wet, or windy it might be!

Date:

Astronomy

Nov. 17, 2013 Rise Set
Actual Time 6:58 AM EST 4:46 PM EST
Civil Twilight 6:28 AM EST 5:16 PM EST
Nautical Twilight 5:55 AM EST 5:49 PM EST
Astronomical Twilight 5:22 AM EST 6:22 PM EST
Moon 5:02 PM EST (11/17) 6:50 AM EST (11/17)
Length of Visible Light 10h 47m
Length of Day
9h 48m
Full, 100% of the Moon is Illuminated
Nov 17
Full
Nov 25
Last Quarter
Dec 2
New
Dec 9
First Quarter
Dec 17
Full

Hourly Weather History & Observations

Time (EST) Temp. Dew Point Humidity Pressure Visibility Wind Dir Wind Speed Gust Speed Precip Events Conditions
12:02 AM 50.0 °F 44.6 °F 82% 30.19 in 8.0 mi East 9.2 mph - N/A   Overcast
12:54 AM 50.0 °F 45.0 °F 83% 30.18 in 6.0 mi Variable 6.9 mph - N/A   Haze
1:49 AM 50.0 °F 44.6 °F 82% 30.17 in 6.0 mi ENE 5.8 mph - N/A   Haze
1:54 AM 50.0 °F 45.0 °F 83% 30.17 in 7.0 mi Variable 3.5 mph - N/A   Overcast
2:54 AM 50.0 °F 46.0 °F 86% 30.17 in 6.0 mi ENE 6.9 mph - N/A   Overcast
3:54 AM 50.0 °F 46.9 °F 89% 30.15 in 4.0 mi NE 9.2 mph - 0.00 in Rain Light Rain
4:54 AM 50.0 °F 46.9 °F 89% 30.13 in 7.0 mi East 9.2 mph - 0.01 in   Overcast
5:54 AM 50.0 °F 48.0 °F 93% 30.11 in 4.0 mi East 5.8 mph - N/A   Overcast
6:12 AM 50.0 °F 48.2 °F 94% 30.11 in 4.0 mi East 6.9 mph - N/A   Overcast
6:54 AM 50.0 °F 48.0 °F 93% 30.11 in 3.0 mi Variable 5.8 mph 16.1 mph N/A   Overcast
7:04 AM 50.0 °F 48.2 °F 94% 30.10 in 2.0 mi NE 8.1 mph - N/A   Overcast
7:54 AM 51.1 °F 48.9 °F 92% 30.09 in 2.0 mi NE 8.1 mph 23.0 mph N/A   Overcast
8:01 AM 51.8 °F 48.2 °F 88% 30.10 in 1.8 mi Variable 6.9 mph - N/A   Overcast
8:08 AM 51.8 °F 48.2 °F 88% 30.10 in 2.0 mi NNE 6.9 mph 16.1 mph N/A   Overcast
8:54 AM 52.0 °F 48.9 °F 89% 30.11 in 2.0 mi East 3.5 mph - N/A   Overcast
9:37 AM 53.6 °F 50.0 °F 88% 30.10 in 3.0 mi East 8.1 mph 16.1 mph 0.01 in Rain Light Rain
9:54 AM 53.1 °F 50.0 °F 89% 30.10 in 2.5 mi ENE 10.4 mph 17.3 mph 0.01 in Rain Light Rain
10:16 AM 53.6 °F 50.0 °F 88% 30.08 in 3.0 mi Variable 5.8 mph - 0.01 in Rain Light Rain
10:54 AM 54.0 °F 51.1 °F 90% 30.08 in 3.0 mi South 12.7 mph 26.5 mph 0.01 in Rain Light Rain
11:54 AM 55.0 °F 52.0 °F 89% 30.02 in 3.0 mi South 16.1 mph 28.8 mph 0.01 in   Overcast
12:54 PM 55.0 °F 52.0 °F 89% 29.99 in 7.0 mi SSE 20.7 mph 32.2 mph 0.00 in   Overcast
1:54 PM 55.9 °F 52.0 °F 87% 29.98 in 10.0 mi SSE 12.7 mph 20.7 mph 0.00 in Rain Light Rain
2:03 PM 55.4 °F 51.8 °F 88% 29.97 in 10.0 mi SSE 13.8 mph 23.0 mph N/A   Overcast
2:54 PM 55.9 °F 53.1 °F 90% 29.95 in 7.0 mi SSE 12.7 mph 21.9 mph 0.02 in Rain Light Rain
3:54 PM 55.9 °F 53.1 °F 90% 29.90 in 5.0 mi SSE 20.7 mph 29.9 mph 0.01 in   Overcast
4:54 PM 57.0 °F 53.1 °F 87% 29.88 in 8.0 mi SSE 11.5 mph 23.0 mph N/A   Overcast
5:54 PM 57.0 °F 53.1 °F 87% 29.86 in 7.0 mi Variable 4.6 mph 17.3 mph N/A   Overcast
6:54 PM 57.0 °F 53.1 °F 87% 29.81 in 5.0 mi SE 17.3 mph 29.9 mph N/A   Overcast
7:54 PM 57.9 °F 53.1 °F 84% 29.78 in 7.0 mi SSE 18.4 mph 36.8 mph N/A   Overcast
8:46 PM 59.0 °F 53.6 °F 82% 29.74 in 10.0 mi SSE 16.1 mph 27.6 mph 0.00 in Rain Light Rain
8:54 PM 59.0 °F 53.1 °F 81% 29.73 in 10.0 mi SE 18.4 mph 29.9 mph 0.00 in   Overcast
9:54 PM 60.1 °F 54.0 °F 80% 29.67 in 10.0 mi SE 16.1 mph 28.8 mph 0.00 in   Overcast
10:54 PM 60.1 °F 54.0 °F 80% 29.62 in 10.0 mi SE 15.0 mph 29.9 mph 0.00 in   Overcast
11:30 PM 59.0 °F 55.4 °F 88% 29.60 in 3.0 mi SSE 13.8 mph 29.9 mph 0.08 in Rain Rain
11:54 PM 59.0 °F 55.0 °F 87% 29.57 in 5.0 mi SE 19.6 mph 28.8 mph 0.13 in Rain Rain